This demonstration page uses our WeatherBlox Daily Observations layout. Learn more.

Left ArrowRight Arrow

41.12389, -100.76542

Hourly Observations for December 18, 2017

Temp ( °F °C ) Dew Point ( °F °C ) Humidity (%) Winds ( mph kmh ) Pressure ( in mb ) Visibility ( mi km ) Precip ( " mm )
12:53 am 00:53 Clear 25 -3.9 22 -5.6 88 88 WNW 8 13 30.02 1017 10 16 0.00 0.00
1:53 am 01:53 Clear 23 -5 20 -6.7 88 88 WNW 6 9 30.01 1016 10 16 0.00 0.00
2:53 am 02:53 Clear 20 -6.7 18 -7.8 92 92 WNW 6 9 30.01 1016 10 16 0.00 0.00
3:53 am 03:53 Clear 23 -5 19 -7.2 85 85 NW 8 13 30.01 1016 10 16 0.00 0.00
4:53 am 04:53 Clear 20 -6.7 17 -8.3 89 89 WNW 3 6 30.02 1017 10 16 0.00 0.00
5:53 am 05:53 Clear 18 -7.8 16 -8.9 92 92 NW 6 9 30.04 1017 10 16 0.00 0.00
6:53 am 06:53 Clear 19 -7.2 16 -8.9 88 88 NW 5 7 30.04 1017 10 16 0.00 0.00
7:53 am 07:53 Clear 19 -7.2 16 -8.9 88 88 WNW 3 6 30.05 1018 10 16 0.00 0.00
8:53 am 08:53 Sunny 22 -5.6 19 -7.2 89 89 Calm 30.04 1017 10 16 0.00 0.00
9:53 am 09:53 Sunny 32 0 26 -3.3 79 79 W 7 11 30.01 1016 10 16 0.00 0.00
10:53 am 10:53 Sunny 39 3.9 29 -1.7 67 67 W 7 11 30.01 1016 10 16 0.00 0.00
11:53 am 11:53 Sunny 50 10 27 -2.8 41 41 WSW 14 22 29.97 1015 10 16 0.00 0.00
12:53 pm 12:53 Sunny 53 11.7 25 -3.9 34 34 SW 15 24 29.93 1014 10 16 0.00 0.00
1:53 pm 13:53 Sunny 56 13.3 23 -5 28 28 SW 17 28 29.90 1013 10 16 0.00 0.00
2:53 pm 14:53 Sunny 58 14.4 23 -5 26 26 SW 12 19 29.88 1012 10 16 0.00 0.00
3:53 pm 15:53 Sunny 57 13.9 23 -5 27 27 WSW 8 13 29.87 1012 10 16 0.00 0.00
4:53 pm 16:53 Sunny 54 12.2 22 -5.6 29 29 WSW 9 15 29.89 1012 10 16 0.00 0.00
5:53 pm 17:53 Clear 44 6.7 23 -5 43 43 NW 5 7 29.93 1014 10 16 0.00 0.00
6:53 pm 18:53 Clear 43 6.1 24 -4.4 47 47 WNW 6 9 29.95 1014 10 16 0.00 0.00
7:53 pm 19:53 Clear 39 3.9 23 -5 53 53 WNW 6 9 29.97 1015 10 16 0.00 0.00
8:53 pm 20:53 Clear 34 1.1 23 -5 64 64 NW 6 9 29.98 1015 10 16 0.00 0.00
9:53 pm 21:53 Clear 29 -1.7 22 -5.6 75 75 NW 6 9 29.97 1015 10 16 0.00 0.00
10:53 pm 22:53 Clear 28 -2.2 22 -5.6 78 78 WNW 3 6 29.98 1015 10 16 0.00 0.00
11:53 pm 23:53 Clear 27 -2.8 22 -5.6 81 81 NW 6 9 29.97 1015 10 16 0.00 0.00

Powered by AerisWeather